Weather in Petrokhersonets

Russia / Orenburg Oblast     53°01′06″N   53°02′23″E
temp.,
°C
wind,
m/s
gust,
m/s
humid.,
%
clouds,
%
prec.,
mm/h
press.,
hPa
HPBL,
m
27 february, sat
sat2723:00−16se71493100 0.1 1016447
02:00−13sse91694100 0.4 1011548
05:00−11sse91695100 4.8 1006628
08:00−9sse71395100 3.3 1002502
11:00−6sse6995100 4.1 1001352
14:000ssw37100100 0.9 1000313
17:000sw5999100 1.3 1000470
20:000sw4898100 0.4 999402
28 february, sun
sun2823:00−1ssw4998100 1.0 998324
02:00−1sw4998100 1.0 997388
05:00−1sw3698100 1.9 998270
08:00−5wnw579699 0.6 999203
11:00−8wnw599495 0.8 1001287
14:00−9nw5892100 0.1 1004387
17:00−10nw5891100 0.1 1007433
20:00−12nw379491 0.1 1009283
1 march, mon
mon123:00−13nnw379589 0.4 1012257
02:00−15nw369694 0.2 1014153
05:00−16nw369696 0.4 1015154
08:00−17nnw359690 0.1 1017189
11:00−17nnw349390 0.2 1019220
14:00−16nnw359227 0.0 1020257
17:00−16nw369337 0.0 1021272
20:00−19nw339819 0.0 102221
2 march, tue
tue223:00−22wnw1210024 0.0 102320
02:00−23w1210030 0.0 102320
05:00−24w2210028 0.0 102220
08:00−25sw2210045 0.0 102120
11:00−20s369756 0.0 1019208
14:00−15ssw599489 0.0 1017365
17:00−13s6119494 0.1 1014423
20:00−12s61395100 0.6 1011556
3 march, wed
wed323:00−8s61395100 1.3 1008553
02:00−5s61396100 1.1 1005601
05:00−3ssw41197100 2.3 1002553
08:00−4ssw3997100 0.7 1000412
11:00−3sw4796100 1.1 1000388
14:00−2wsw4595100 0.1 1001478
17:00−4wnw6893100 0.5 1002520
20:00−6wnw61294100 0.5 1003571